Total_Precipitation_Accumulation
1.12 1.13 1.05 0.99 0.92 0.86 0.79 0.78 0.70 0.63 0.62 0.60 0.53 0.51 0.51 0.50 0.49 0.47 0.48 0.45 0.49 0.59 0.68 0.74 0.79 0.84 0.88 0.89 0.90 0.92 0.97 0.99 1.04 1.02 0.91 0.82 0.77 0.71 0.65 0.54 0.46 0.42 0.38
0.69 0.66 0.64 0.60 0.58 0.57 0.55 0.54 0.55 0.53 0.51 0.50 0.48 0.46 0.46 0.48 0.50 0.48 0.48 0.48 0.48 0.51 0.55 0.58 0.60 0.62 0.67 0.72 0.76 0.76 0.80 0.84 0.89 0.93 0.87 0.75 0.68 0.61 0.54 0.50 0.40 0.33 0.30
0.50 0.49 0.46 0.46 0.47 0.49 0.51 0.50 0.49 0.49 0.47 0.45 0.44 0.44 0.45 0.44 0.45 0.46 0.46 0.45 0.44 0.44 0.42 0.40 0.41 0.43 0.47 0.48 0.51 0.54 0.56 0.57 0.61 0.66 0.66 0.59 0.54 0.48 0.47 0.43 0.37 0.37 0.27
0.46 0.44 0.39 0.37 0.38 0.40 0.41 0.41 0.41 0.41 0.44 0.45 0.45 0.43 0.40 0.35 0.33 0.32 0.31 0.31 0.30 0.31 0.29 0.27 0.27 0.29 0.31 0.34 0.36 0.38 0.41 0.46 0.50 0.54 0.53 0.49 0.44 0.39 0.43 0.43 0.37 0.34 0.27
0.49 0.52 0.49 0.43 0.40 0.40 0.41 0.44 0.43 0.39 0.36 0.35 0.31 0.28 0.24 0.19 0.17 0.17 0.17 0.18 0.19 0.20 0.20 0.18 0.19 0.24 0.28 0.29 0.29 0.33 0.38 0.44 0.46 0.47 0.43 0.40 0.37 0.40 0.42 0.39 0.34 0.29 0.25
0.59 0.62 0.63 0.61 0.57 0.52 0.47 0.43 0.37 0.33 0.27 0.21 0.16 0.15 0.15 0.13 0.13 0.13 0.14 0.14 0.16 0.17 0.19 0.19 0.19 0.21 0.23 0.23 0.26 0.33 0.42 0.44 0.44 0.45 0.42 0.41 0.39 0.40 0.40 0.38 0.37 0.37 0.37
0.68 0.69 0.68 0.64 0.58 0.49 0.38 0.32 0.28 0.25 0.22 0.19 0.14 0.10 0.10 0.11 0.12 0.12 0.13 0.14 0.16 0.18 0.18 0.18 0.18 0.17 0.19 0.20 0.23 0.27 0.31 0.33 0.36 0.42 0.47 0.45 0.45 0.45 0.46 0.44 0.45 0.47 0.45
0.71 0.68 0.63 0.55 0.48 0.38 0.31 0.27 0.25 0.23 0.23 0.22 0.18 0.15 0.13 0.10 0.09 0.09 0.10 0.11 0.14 0.16 0.16 0.17 0.19 0.20 0.20 0.20 0.20 0.21 0.27 0.33 0.32 0.32 0.40 0.41 0.37 0.38 0.42 0.45 0.47 0.50 0.50
0.66 0.57 0.47 0.40 0.35 0.29 0.26 0.24 0.23 0.21 0.20 0.18 0.17 0.17 0.17 0.14 0.08 0.08 0.08 0.09 0.12 0.14 0.14 0.15 0.17 0.21 0.22 0.20 0.20 0.26 0.31 0.36 0.27 0.25 0.30 0.34 0.35 0.36 0.35 0.40 0.55 0.68 0.63
0.45 0.37 0.32 0.30 0.29 0.27 0.24 0.23 0.22 0.21 0.20 0.16 0.14 0.15 0.15 0.14 0.09 0.09 0.09 0.09 0.11 0.11 0.13 0.16 0.16 0.17 0.17 0.15 0.16 0.25 0.35 0.37 0.33 0.37 0.45 0.48 0.48 0.53 0.48 0.50 0.64 0.71 0.68
0.29 0.26 0.25 0.24 0.21 0.23 0.24 0.23 0.23 0.22 0.23 0.21 0.19 0.17 0.14 0.10 0.07 0.07 0.06 0.06 0.08 0.10 0.15 0.22 0.23 0.14 0.12 0.13 0.16 0.20 0.28 0.26 0.34 0.49 0.56 0.55 0.55 0.59 0.57 0.52 0.58 0.65 0.72
0.24 0.26 0.26 0.22 0.17 0.20 0.27 0.27 0.25 0.28 0.30 0.29 0.26 0.23 0.17 0.13 0.07 0.05 0.04 0.03 0.04 0.10 0.20 0.23 0.22 0.14 0.11 0.14 0.17 0.21 0.23 0.29 0.43 0.55 0.58 0.56 0.53 0.53 0.52 0.47 0.50 0.55 0.64
0.29 0.31 0.27 0.22 0.20 0.23 0.27 0.27 0.26 0.27 0.25 0.24 0.23 0.22 0.18 0.16 0.11 0.05 0.04 0.04 0.04 0.08 0.15 0.14 0.14 0.16 0.18 0.28 0.26 0.24 0.30 0.45 0.54 0.58 0.59 0.56 0.48 0.43 0.40 0.38 0.41 0.51 0.57
0.40 0.36 0.27 0.25 0.24 0.24 0.24 0.21 0.19 0.20 0.18 0.17 0.19 0.17 0.18 0.18 0.12 0.07 0.05 0.07 0.08 0.10 0.13 0.16 0.24 0.30 0.33 0.40 0.44 0.49 0.51 0.51 0.48 0.54 0.55 0.47 0.36 0.32 0.34 0.35 0.40 0.46 0.55
0.44 0.34 0.27 0.24 0.23 0.22 0.19 0.13 0.09 0.09 0.07 0.10 0.13 0.12 0.12 0.12 0.08 0.07 0.06 0.05 0.06 0.07 0.10 0.21 0.37 0.43 0.48 0.52 0.54 0.57 0.59 0.53 0.47 0.47 0.47 0.44 0.37 0.35 0.32 0.29 0.34 0.38 0.46
0.40 0.29 0.22 0.18 0.16 0.14 0.14 0.14 0.07 0.03 0.03 0.03 0.04 0.04 0.04 0.05 0.05 0.05 0.05 0.05 0.07 0.09 0.15 0.31 0.37 0.40 0.44 0.45 0.44 0.48 0.52 0.51 0.44 0.40 0.40 0.38 0.35 0.34 0.34 0.32 0.32 0.37 0.44
0.29 0.21 0.16 0.14 0.14 0.14 0.13 0.19 0.20 0.09 0.03 0.02 0.02 0.03 0.04 0.05 0.05 0.05 0.05 0.08 0.11 0.17 0.28 0.37 0.37 0.39 0.42 0.39 0.37 0.42 0.46 0.42 0.36 0.33 0.32 0.30 0.28 0.27 0.29 0.30 0.30 0.30 0.31
0.13 0.08 0.08 0.11 0.11 0.10 0.09 0.11 0.14 0.19 0.19 0.12 0.05 0.03 0.04 0.05 0.06 0.07 0.11 0.16 0.25 0.29 0.34 0.34 0.33 0.35 0.38 0.38 0.33 0.32 0.32 0.28 0.24 0.24 0.25 0.22 0.21 0.23 0.25 0.27 0.23 0.20 0.23
0.07 0.07 0.07 0.06 0.05 0.05 0.05 0.06 0.06 0.09 0.16 0.20 0.15 0.08 0.06 0.10 0.12 0.15 0.20 0.24 0.30 0.29 0.27 0.27 0.28 0.28 0.30 0.32 0.28 0.24 0.21 0.18 0.17 0.17 0.17 0.18 0.18 0.19 0.19 0.18 0.15 0.10 0.14
0.06 0.04 0.05 0.04 0.02 0.02 0.03 0.03 0.03 0.05 0.09 0.14 0.14 0.09 0.08 0.17 0.25 0.25 0.23 0.22 0.22 0.22 0.23 0.24 0.22 0.19 0.22 0.21 0.17 0.16 0.16 0.14 0.12 0.12 0.12 0.12 0.12 0.13 0.13 0.11 0.10 0.10 0.11
0.03 0.02 0.01 0.01 0.01 0.01 0.02 0.02 0.02 0.03 0.06 0.08 0.07 0.05 0.09 0.18 0.26 0.26 0.24 0.20 0.17 0.19 0.21 0.20 0.18 0.16 0.15 0.14 0.12 0.10 0.09 0.09 0.09 0.11 0.10 0.08 0.07 0.07 0.06 0.04 0.04 0.04 0.04
0.02 0.02 0.01 0.01 0.01 0.01 0.01 0.02 0.02 0.02 0.04 0.05 0.05 0.05 0.10 0.16 0.22 0.25 0.26 0.21 0.17 0.16 0.17 0.16 0.14 0.13 0.11 0.11 0.10 0.08 0.06 0.06 0.07 0.11 0.10 0.07 0.05 0.04 0.03 0.02 0.02 0.02 0.02
0.01 0.01 0.00 0.00 0.00 0.00 0.01 0.01 0.01 0.01 0.02 0.03 0.04 0.06 0.08 0.15 0.21 0.24 0.22 0.17 0.13 0.11 0.12 0.12 0.11 0.09 0.07 0.06 0.05 0.04 0.03 0.03 0.05 0.08 0.09 0.05 0.03 0.03 0.02 0.02 0.02 0.02 0.01
0.00 0.00 0.00 0.00 0.00 0.00 0.00 0.00 0.00 0.00 0.01 0.02 0.03 0.04 0.05 0.11 0.15 0.17 0.17 0.14 0.10 0.09 0.08 0.07 0.07 0.05 0.04 0.03 0.02 0.01 0.01 0.01 0.02 0.03 0.05 0.04 0.03 0.02 0.02 0.02 0.02 0.02 0.02
0.00 0.00 0.00 0.00 0.00 0.00 0.00 0.00 0.00 0.00 0.01 0.01 0.02 0.03 0.03 0.04 0.06 0.07 0.09 0.10 0.10 0.08 0.06 0.04 0.03 0.02 0.01 0.01 0.01 0.00 0.00 0.01 0.00 0.01 0.02 0.02 0.01 0.01 0.01 0.01 0.01 0.02 0.03
0.00 0.00 0.00 0.00 0.00 0.00 0.00 0.00 0.01 0.01 0.01 0.01 0.02 0.03 0.02 0.02 0.02 0.03 0.04 0.06 0.07 0.06 0.06 0.04 0.02 0.01 0.00 0.00 0.00 0.01 0.01 0.01 0.01 0.01 0.01 0.02 0.01 0.01 0.01 0.01 0.01 0.02 0.02